Date,TemperatureHighF,TemperatureAvgF,TemperatureLowF,DewpointHighF,DewpointAvgF,DewpointLowF,HumidityHigh,HumidityAvg,HumidityLow,PressureMaxIn,PressureMinIn,WindSpeedMaxMPH,WindSpeedAvgMPH,GustSpeedMaxMPH,PrecipitationSumIn
2013-5-1,64.0,58.0,54.0,55.0,50.9,49.0,86,77,62,30.25,30.14,1,0,10,0.00
2013-5-2,58.0,54.5,52.0,54.0,51.7,50.0,95,90,83,30.26,30.19,2,0,6,0.11
2013-5-3,56.0,52.7,50.0,52.0,50.0,47.0,95,90,74,30.20,30.06,2,0,7,0.15
2013-5-4,52.0,47.4,45.0,49.0,44.9,40.0,95,91,81,30.07,29.93,2,0,9,1.16
2013-5-5,49.0,46.9,45.0,49.0,46.2,44.0,100,97,95,29.94,29.77,3,0,11,2.32
2013-5-6,61.0,52.3,44.0,51.0,45.6,41.0,100,80,52,29.88,29.73,4,1,11,2.71
2013-5-7,65.0,50.8,37.0,52.0,43.3,36.0,99,78,43,29.93,29.83,2,0,7,0.01
2013-5-8,67.0,57.1,46.0,54.0,49.3,44.0,95,77,56,30.03,29.90,2,0,6,0.01
2013-5-9,77.0,61.5,46.0,56.0,51.5,45.0,96,73,38,30.10,30.00,2,0,6,0.00
2013-5-10,75.0,62.0,52.0,58.0,52.5,-99.9,96,76,51,30.11,29.97,5,1,14,0.02
2013-5-11,72.0,63.6,56.0,60.0,55.0,50.0,90,74,56,29.98,29.83,4,0,8,0.02
2013-5-12,69.0,57.6,48.0,54.0,39.0,-99.9,91,55,27,30.03,29.86,2,0,9,0.00
2013-5-13,67.0,52.9,42.0,32.0,27.1,20.0,62,39,18,30.15,30.02,4,0,12,0.00
2013-5-14,69.0,54.7,37.0,51.0,38.4,29.0,86,57,31,30.22,30.07,3,0,14,0.00
2013-5-15,88.0,69.7,55.0,55.0,51.0,46.0,82,55,23,30.11,29.98,3,0,12,0.00
2013-5-16,79.0,61.2,55.0,60.0,32.9,-99.9,85,63,35,30.07,29.99,2,0,6,0.00
2013-5-17,78.0,64.8,56.0,60.0,49.0,-99.9,92,72,41,30.13,30.03,3,0,9,0.00
2013-5-18,65.0,61.8,59.0,62.0,58.9,54.0,96,90,74,30.13,30.05,2,0,4,0.42
2013-5-19,72.0,65.1,62.0,64.0,61.7,60.0,96,89,71,30.12,30.02,1,0,6,0.15
2013-5-20,81.0,65.4,58.0,66.0,61.2,57.0,98,88,51,30.14,30.05,1,0,4,0.09
2013-5-21,84.0,65.2,58.0,67.0,61.2,58.0,100,89,48,30.09,29.99,4,0,9,0.09
2013-5-22,80.0,66.2,58.0,67.0,61.8,58.0,100,87,57,30.04,29.90,3,0,12,0.44
2013-5-23,79.0,66.9,60.0,65.0,58.0,49.0,100,76,35,29.97,29.86,2,0,10,0.48
2013-5-24,67.0,60.2,51.0,53.0,41.7,31.0,81,53,29,30.21,29.91,3,1,12,0.00
2013-5-25,75.0,59.0,41.0,49.0,36.7,22.0,85,47,20,30.29,30.16,1,0,6,0.00
2013-5-26,76.0,58.9,49.0,53.0,46.6,33.0,95,66,38,30.28,30.16,2,0,5,0.06
2013-5-27,77.0,63.9,50.0,57.0,52.6,48.0,95,70,41,30.27,30.16,3,0,9,0.06
2013-5-28,79.0,68.6,59.0,60.0,57.0,55.0,89,68,46,30.24,30.16,3,0,11,0.00
2013-5-29,80.0,69.5,59.0,62.0,58.8,56.0,92,70,48,30.25,30.18,1,0,6,0.00
2013-5-30,79.0,68.0,58.0,63.0,58.4,56.0,95,74,50,30.30,30.19,1,0,6,0.00
2013-5-31,79.0,71.8,63.0,62.0,59.2,56.0,93,66,47,30.25,30.14,4,0,10,0.00